Language: 


Des rapports , des résumés tant et plus, au choix de chacun....


Données Historiques de Météogheer
Journalier Rapport pour Décembre 10, 2017 Unitée:  Métrique    Impériale   Les deux
Suivant Jour »
Journalier Hebdomadaire Mensuel Annuel Sur mesure
  Max: Min: Moyenne:
Température: 9.3 °C 0.0 °C 3.5 °C
Point de rosée: 8.0 °C 1.0 °C 3 °C
Humidité: 98% 0% 94%
Vent: 66.9km/h 0.0km/h 17.3km/h
Rafales: 80.9km/h - -
Vent- - SW
Pression: 1007.0 hPa 0.0 hPa -
Pluie: 19.6 mm    
Historical Graphs
 
 
Données tabulaires pour Décembre 10, 2017
Heure Température Point de rosée Pression Vent Vent Rafales Humidité Pluie Taux (Horaire) Conditions
00:03 1.4 °C 1.0 °C 1007.0 hPa SW 9.7 km/h 12.2 km/h 98% 0.0 mm
00:08 1.4 °C 1.0 °C 1007.0 hPa SW 7.9 km/h 13.0 km/h 98% 0.0 mm
00:13 1.4 °C 1.0 °C 1006.0 hPa WSW 10.1 km/h 13.0 km/h 98% 0.0 mm
00:18 1.4 °C 1.0 °C 1006.0 hPa SSW 10.1 km/h 14.0 km/h 98% 0.0 mm
00:23 1.4 °C 1.0 °C 1006.0 hPa WSW 9.0 km/h 14.0 km/h 98% 0.0 mm
00:28 1.4 °C 1.0 °C 1006.0 hPa SSW 10.1 km/h 12.2 km/h 98% 0.0 mm
00:33 1.5 °C 2.0 °C 1006.0 hPa WSW 9.3 km/h 12.6 km/h 98% 0.0 mm
00:38 1.5 °C 2.0 °C 1006.0 hPa SSW 9.7 km/h 12.6 km/h 98% 0.0 mm
00:43 1.5 °C 2.0 °C 1006.0 hPa SW 8.7 km/h 12.6 km/h 98% 0.0 mm
00:48 1.5 °C 2.0 °C 1006.0 hPa SSW 8.7 km/h 12.2 km/h 98% 0.3 mm
00:53 1.6 °C 2.0 °C 1006.0 hPa SSW 14.0 km/h 15.1 km/h 98% 0.3 mm
00:58 1.6 °C 2.0 °C 1005.0 hPa SW 9.7 km/h 15.1 km/h 98% 0.3 mm
01:04 1.6 °C 2.0 °C 1005.0 hPa SW 6.4 km/h 15.1 km/h 98% 0.3 mm
01:09 1.6 °C 2.0 °C 1005.0 hPa SSW 6.1 km/h 15.1 km/h 98% 0.3 mm
01:14 1.6 °C 2.0 °C 1005.0 hPa SSW 4.7 km/h 10.5 km/h 98% 0.3 mm
01:19 1.5 °C 2.0 °C 1005.0 hPa South 1.4 km/h 8.7 km/h 98% 0.3 mm
01:24 1.5 °C 2.0 °C 1005.0 hPa Calm   8.7 km/h 98% 0.3 mm
01:29 1.4 °C 1.0 °C 1005.0 hPa South 6.9 km/h 9.0 km/h 98% 0.3 mm
01:34 1.4 °C 1.0 °C 1005.0 hPa SSW 7.9 km/h 11.9 km/h 98% 0.3 mm
01:39 1.5 °C 2.0 °C 1005.0 hPa South 5.5 km/h 11.9 km/h 98% 0.3 mm
01:44 1.5 °C 2.0 °C 1002.9 hPa South 8.7 km/h 9.0 km/h 98% 0.3 mm
01:49 1.5 °C 2.0 °C 1002.9 hPa Calm   10.1 km/h 98% 0.0 mm
01:54 1.5 °C 2.0 °C 1002.9 hPa Calm   10.1 km/h 98% 0.0 mm
01:59 1.5 °C 2.0 °C 1001.9 hPa South 6.9 km/h 9.3 km/h 98% 0.0 mm
02:04 1.5 °C 2.0 °C 1001.9 hPa SSW 5.8 km/h 9.3 km/h 98% 0.0 mm
02:09 1.5 °C 2.0 °C 1001.9 hPa South 3.5 km/h 8.7 km/h 98% 0.0 mm
02:14 1.6 °C 2.0 °C 1002.9 hPa SSW 3.2 km/h 6.9 km/h 98% 0.0 mm
02:19 1.7 °C 2.0 °C 1002.9 hPa SW 8.7 km/h 9.3 km/h 98% 0.0 mm
02:24 1.7 °C 2.0 °C 1002.9 hPa Calm   10.5 km/h 98% 0.0 mm
02:29 1.7 °C 2.0 °C 1002.9 hPa Calm   10.5 km/h 98% 0.0 mm
02:34 1.7 °C 2.0 °C 1002.9 hPa South 3.2 km/h 8.7 km/h 98% 0.0 mm
02:39 1.7 °C 2.0 °C 1002.9 hPa Calm   8.7 km/h 98% 0.0 mm
02:44 1.7 °C 2.0 °C 1001.9 hPa Calm   5.0 km/h 98% 0.0 mm
02:49 1.7 °C 2.0 °C 1001.9 hPa Calm   9.0 km/h 98% 0.0 mm
02:54 1.7 °C 2.0 °C 1001.9 hPa Calm   9.0 km/h 98% 0.0 mm
03:02 0.0 °C 2.0 °C 0.0 hPa Calm   6.4 km/h 0% 0.0 mm
03:07 1.8 °C 2.0 °C 1000.9 hPa SSW 2.1 km/h 9.3 km/h 98% 0.0 mm
03:12 1.8 °C 2.0 °C 1000.9 hPa South 6.1 km/h 9.3 km/h 98% 0.0 mm
03:17 1.8 °C 2.0 °C 1000.9 hPa South 4.7 km/h 9.3 km/h 98% 0.0 mm
03:22 1.8 °C 2.0 °C 1000.9 hPa Calm   9.3 km/h 98% 0.0 mm
03:27 1.8 °C 2.0 °C 1000.9 hPa Calm   6.4 km/h 98% 0.0 mm
03:32 1.9 °C 2.0 °C 1000.9 hPa Calm   6.9 km/h 98% 0.0 mm
03:42 1.9 °C 2.0 °C 999.9 hPa South 5.8 km/h 10.1 km/h 98% 0.0 mm
03:48 1.9 °C 2.0 °C 999.9 hPa South 4.0 km/h 10.1 km/h 98% 0.0 mm
03:53 1.9 °C 2.0 °C 999.9 hPa Calm   11.9 km/h 98% 0.0 mm
03:58 2.0 °C 2.0 °C 998.9 hPa SSE 6.4 km/h 11.9 km/h 98% 0.0 mm
04:03 2.0 °C 2.0 °C 998.9 hPa South 10.1 km/h 14.0 km/h 98% 0.0 mm
04:08 2.1 °C 2.0 °C 998.9 hPa South 11.9 km/h 17.2 km/h 98% 0.0 mm
04:14 2.1 °C 2.0 °C 998.9 hPa South 9.3 km/h 17.2 km/h 98% 0.0 mm
04:19 2.2 °C 2.0 °C 998.9 hPa South 9.7 km/h 14.0 km/h 98% 0.0 mm
04:22 2.2 °C 2.0 °C 998.9 hPa South 8.7 km/h 14.0 km/h 98% 0.0 mm
04:25 2.2 °C 2.0 °C 998.9 hPa South 11.9 km/h 14.0 km/h 98% 0.0 mm
04:26 2.2 °C 2.0 °C 997.9 hPa SSW 9.7 km/h 14.0 km/h 98% 0.0 mm
04:31 2.3 °C 3.0 °C 997.9 hPa South 13.7 km/h 16.6 km/h 98% 0.0 mm
04:47 2.4 °C 3.0 °C 996.8 hPa South 14.0 km/h 17.7 km/h 98% 0.0 mm
04:52 2.4 °C 3.0 °C 996.8 hPa South 10.1 km/h 17.2 km/h 98% 0.0 mm
04:57 2.4 °C 3.0 °C 996.8 hPa South 10.1 km/h 17.2 km/h 98% 0.0 mm
05:02 2.5 °C 3.0 °C 996.8 hPa SSW 11.9 km/h 20.1 km/h 98% 0.0 mm
05:07 2.6 °C 3.0 °C 996.8 hPa South 11.9 km/h 20.1 km/h 98% 0.0 mm
05:12 2.6 °C 3.0 °C 996.2 hPa South 13.0 km/h 17.7 km/h 98% 0.0 mm
05:17 2.6 °C 3.0 °C 996.2 hPa SSW 10.1 km/h 24.8 km/h 98% 0.0 mm
05:22 2.6 °C 3.0 °C 996.2 hPa South 9.0 km/h 24.8 km/h 98% 0.0 mm
05:27 2.7 °C 3.0 °C 995.1 hPa SSW 15.4 km/h 17.7 km/h 98% 0.0 mm
05:32 2.7 °C 3.0 °C 995.1 hPa South 13.7 km/h 20.6 km/h 98% 0.0 mm
05:37 2.7 °C 3.0 °C 995.1 hPa South 15.1 km/h 20.6 km/h 98% 0.0 mm
05:42 2.7 °C 3.0 °C 994.1 hPa South 10.1 km/h 20.6 km/h 98% 0.0 mm
05:47 2.7 °C 3.0 °C 994.1 hPa South 21.6 km/h 23.3 km/h 98% 0.0 mm
05:52 2.8 °C 3.0 °C 994.1 hPa South 9.7 km/h 23.3 km/h 98% 0.0 mm
05:57 2.8 °C 3.0 °C 994.1 hPa South 15.8 km/h 21.6 km/h 98% 0.0 mm
06:07 2.7 °C 3.0 °C 994.1 hPa SSE 15.8 km/h 23.0 km/h 98% 0.0 mm
06:17 2.7 °C 3.0 °C 993.1 hPa South 12.2 km/h 27.7 km/h 98% 0.3 mm
06:23 2.7 °C 3.0 °C 993.1 hPa South 12.6 km/h 27.7 km/h 98% 0.3 mm
06:38 2.6 °C 3.0 °C 993.1 hPa SSE 23.8 km/h 23.8 km/h 98% 0.5 mm
06:43 2.6 °C 3.0 °C 991.1 hPa SSE 13.0 km/h 23.8 km/h 98% 0.5 mm
06:48 2.6 °C 3.0 °C 991.1 hPa South 9.7 km/h 27.7 km/h 98% 0.5 mm
06:53 2.6 °C 3.0 °C 991.1 hPa SSW 14.0 km/h 27.7 km/h 98% 0.5 mm
06:58 2.5 °C 3.0 °C 991.1 hPa South 9.3 km/h 20.9 km/h 98% 0.8 mm
07:08 2.4 °C 3.0 °C 991.1 hPa SSE 19.5 km/h 20.6 km/h 98% 0.8 mm
07:13 2.4 °C 3.0 °C 989.1 hPa ENE 19.1 km/h 20.6 km/h 98% 1.0 mm
07:18 2.3 °C 3.0 °C 989.1 hPa SSE 9.0 km/h 30.9 km/h 98% 1.0 mm
07:23 2.2 °C 2.0 °C 989.1 hPa SSE 26.7 km/h 30.9 km/h 98% 1.3 mm
07:28 2.1 °C 2.0 °C 989.1 hPa SSE 13.0 km/h 26.7 km/h 98% 1.3 mm
07:33 2.0 °C 2.0 °C 989.1 hPa SSE 13.0 km/h 26.7 km/h 98% 1.5 mm
07:38 1.9 °C 2.0 °C 989.1 hPa SSE 15.1 km/h 20.6 km/h 98% 1.3 mm
07:42 1.9 °C 2.0 °C 987.0 hPa South 16.3 km/h 24.8 km/h 98% 1.5 mm
07:47 1.8 °C 2.0 °C 987.0 hPa SSE 11.9 km/h 24.8 km/h 98% 1.5 mm
07:57 1.6 °C 2.0 °C 987.0 hPa South 20.1 km/h 27.0 km/h 98% 1.5 mm
08:02 1.5 °C 2.0 °C 987.0 hPa SSE 15.4 km/h 30.9 km/h 98% 1.8 mm
08:07 1.3 °C 1.0 °C 987.0 hPa SSE 20.9 km/h 30.9 km/h 98% 1.8 mm
08:12 1.2 °C 1.0 °C 986.0 hPa South 10.1 km/h 31.7 km/h 98% 1.5 mm
08:17 1.1 °C 1.0 °C 986.0 hPa SSE 20.1 km/h 31.7 km/h 98% 1.5 mm
08:22 1.1 °C 1.0 °C 986.0 hPa SE 12.6 km/h 24.8 km/h 98% 1.3 mm
08:27 1.0 °C 1.0 °C 985.0 hPa SSE 20.9 km/h 24.8 km/h 98% 1.3 mm
08:32 1.0 °C 1.0 °C 985.0 hPa SSE 25.6 km/h 25.6 km/h 98% 0.8 mm
08:37 1.0 °C 1.0 °C 985.0 hPa SE 20.1 km/h 25.6 km/h 98% 0.8 mm
08:42 1.0 °C 1.0 °C 983.0 hPa SE 10.1 km/h 25.6 km/h 98% 0.5 mm
08:47 1.0 °C 1.0 °C 983.0 hPa SE 14.0 km/h 21.2 km/h 98% 0.5 mm
08:57 1.0 °C 1.0 °C 983.0 hPa SE 19.1 km/h 27.7 km/h 98% 0.3 mm
09:02 1.0 °C 1.0 °C 983.0 hPa ESE 15.8 km/h 27.7 km/h 98% 0.0 mm
09:07 0.9 °C 1.0 °C 983.0 hPa SE 17.2 km/h 25.3 km/h 98% 0.0 mm
09:17 0.9 °C 1.0 °C 983.0 hPa SSE 16.9 km/h 30.9 km/h 98% 0.0 mm
09:18 0.9 °C 1.0 °C 983.0 hPa SSE 13.0 km/h 30.9 km/h 98% 0.0 mm
09:23 0.9 °C 1.0 °C 983.0 hPa SE 12.2 km/h 23.3 km/h 98% 0.0 mm
09:28 0.9 °C 1.0 °C 980.9 hPa SSE 9.7 km/h 20.9 km/h 98% 0.0 mm
09:33 0.9 °C 1.0 °C 980.9 hPa SSE 12.2 km/h 20.9 km/h 98% 0.0 mm
09:38 0.9 °C 1.0 °C 980.9 hPa SSE 9.3 km/h 24.5 km/h 98% 0.0 mm
09:43 0.9 °C 1.0 °C 980.9 hPa South 10.5 km/h 24.5 km/h 98% 0.0 mm
09:48 0.9 °C 1.0 °C 980.9 hPa SSE 12.2 km/h 20.6 km/h 98% 0.0 mm
09:53 0.9 °C 1.0 °C 980.9 hPa SSE 14.0 km/h 21.6 km/h 98% 0.0 mm
09:58 0.9 °C 1.0 °C 978.9 hPa SSE 13.0 km/h 21.6 km/h 98% 0.0 mm
10:03 0.9 °C 1.0 °C 978.9 hPa SSE 21.6 km/h 24.5 km/h 98% 0.0 mm
10:08 0.9 °C 1.0 °C 978.9 hPa SSE 17.7 km/h 24.5 km/h 98% 0.0 mm
10:13 0.9 °C 1.0 °C 977.9 hPa South 11.9 km/h 22.4 km/h 98% 0.0 mm
10:18 1.0 °C 1.0 °C 977.9 hPa South 4.3 km/h 27.0 km/h 98% 0.0 mm
10:23 1.0 °C 1.0 °C 977.9 hPa SE 16.6 km/h 27.0 km/h 98% 0.0 mm
10:28 1.1 °C 1.0 °C 976.9 hPa SSE 16.6 km/h 23.0 km/h 98% 0.0 mm
10:33 1.1 °C 1.0 °C 976.9 hPa SE 27.7 km/h 27.7 km/h 98% 0.0 mm
10:38 1.2 °C 1.0 °C 976.9 hPa SE 19.8 km/h 27.7 km/h 98% 0.0 mm
10:43 1.2 °C 1.0 °C 976.9 hPa South 10.1 km/h 27.7 km/h 98% 0.0 mm
10:46 1.3 °C 1.0 °C 976.9 hPa SE 19.8 km/h 24.8 km/h 98% 0.0 mm
10:52 1.3 °C 1.0 °C 976.9 hPa SSE 12.6 km/h 24.8 km/h 98% 0.0 mm
11:02 1.4 °C 1.0 °C 976.9 hPa SSW 13.7 km/h 31.7 km/h 98% 0.0 mm
11:07 1.5 °C 2.0 °C 976.9 hPa SSW 12.2 km/h 31.7 km/h 98% 0.0 mm
11:17 1.6 °C 2.0 °C 975.2 hPa South 16.9 km/h 39.3 km/h 98% 0.0 mm
11:22 1.7 °C 2.0 °C 975.2 hPa South 25.3 km/h 32.0 km/h 98% 0.0 mm
11:27 1.7 °C 2.0 °C 975.2 hPa South 20.9 km/h 36.7 km/h 98% 0.3 mm
11:32 1.8 °C 2.0 °C 975.2 hPa South 21.2 km/h 36.7 km/h 98% 0.5 mm
11:37 2.0 °C 2.0 °C 975.2 hPa South 12.2 km/h 30.6 km/h 98% 1.0 mm
11:42 2.1 °C 2.0 °C 975.2 hPa WSW 24.5 km/h 33.8 km/h 98% 1.3 mm
11:47 2.2 °C 2.0 °C 975.2 hPa SSW 20.1 km/h 33.8 km/h 98% 1.5 mm
11:52 2.4 °C 3.0 °C 975.2 hPa SSW 16.9 km/h 28.5 km/h 98% 1.8 mm
11:58 2.4 °C 3.0 °C 974.2 hPa SSW 23.3 km/h 35.2 km/h 98% 2.5 mm
12:03 2.4 °C 3.0 °C 974.2 hPa SW 7.9 km/h 35.2 km/h 98% 3.0 mm
12:08 2.5 °C 3.0 °C 974.2 hPa SW 9.3 km/h 18.0 km/h 98% 3.8 mm
12:13 2.5 °C 3.0 °C 975.2 hPa South 17.2 km/h 26.7 km/h 98% 5.1 mm
12:18 2.7 °C 3.0 °C 975.2 hPa SSW 10.5 km/h 26.7 km/h 98% 5.3 mm
12:23 2.8 °C 3.0 °C 975.2 hPa SSW 9.0 km/h 20.9 km/h 98% 5.8 mm
12:28 3.0 °C 3.0 °C 974.2 hPa SSW 8.7 km/h 19.8 km/h 98% 5.8 mm
12:33 3.3 °C 3.0 °C 974.2 hPa SW 14.3 km/h 19.8 km/h 98% 5.8 mm
12:38 3.8 °C 4.0 °C 974.2 hPa WSW 16.9 km/h 23.8 km/h 98% 5.8 mm
12:43 4.1 °C 4.0 °C 973.1 hPa SW 10.8 km/h 23.8 km/h 98% 5.8 mm
12:48 4.3 °C 4.0 °C 973.1 hPa SW 23.0 km/h 28.0 km/h 98% 5.8 mm
12:53 4.6 °C 5.0 °C 973.1 hPa WSW 17.7 km/h 28.0 km/h 98% 5.6 mm
12:58 4.8 °C 5.0 °C 973.1 hPa WSW 16.6 km/h 25.3 km/h 98% 5.6 mm
13:03 4.8 °C 5.0 °C 973.1 hPa West 20.1 km/h 25.3 km/h 98% 5.1 mm
13:08 5.0 °C 5.0 °C 973.1 hPa WSW 24.5 km/h 38.5 km/h 98% 4.8 mm
13:13 5.3 °C 6.0 °C 973.1 hPa WSW 36.7 km/h 38.5 km/h 98% 4.1 mm
13:14 5.3 °C 6.0 °C 973.1 hPa WSW 24.5 km/h 38.5 km/h 98% 4.1 mm
13:19 5.6 °C 6.0 °C 973.1 hPa West 43.1 km/h 44.2 km/h 98% 4.1 mm
13:24 5.8 °C 6.0 °C 973.1 hPa WSW 32.0 km/h 47.5 km/h 98% 4.1 mm
13:29 6.0 °C 6.0 °C 973.1 hPa WSW 46.8 km/h 47.5 km/h 98% 4.1 mm
13:34 6.2 °C 6.0 °C 973.1 hPa WSW 37.5 km/h 55.3 km/h 98% 4.1 mm
13:44 6.5 °C 7.0 °C 972.1 hPa WSW 26.2 km/h 53.6 km/h 98% 3.3 mm
13:49 6.6 °C 7.0 °C 972.1 hPa WSW 29.1 km/h 45.7 km/h 98% 3.3 mm
13:54 6.7 °C 7.0 °C 972.1 hPa WSW 37.0 km/h 45.1 km/h 98% 3.8 mm
13:59 7.0 °C 7.0 °C 973.1 hPa WSW 24.5 km/h 50.0 km/h 98% 3.3 mm
14:04 7.1 °C 7.0 °C 973.1 hPa WSW 24.5 km/h 50.0 km/h 98% 3.3 mm
14:09 7.1 °C 7.0 °C 973.1 hPa WSW 23.0 km/h 44.6 km/h 98% 3.3 mm
14:14 7.4 °C 7.0 °C 973.1 hPa WSW 42.8 km/h 51.5 km/h 98% 3.0 mm
14:19 8.0 °C 8.0 °C 973.1 hPa WSW 48.3 km/h 57.3 km/h 96% 2.8 mm
14:24 8.3 °C 8.0 °C 973.1 hPa WSW 36.0 km/h 57.3 km/h 93% 2.5 mm
14:29 8.5 °C 8.0 °C 972.1 hPa WSW 41.4 km/h 56.8 km/h 91% 2.3 mm
14:34 8.7 °C 7.0 °C 972.1 hPa WSW 49.7 km/h 67.7 km/h 85% 2.3 mm
14:39 9.0 °C 6.0 °C 972.1 hPa WSW 53.6 km/h 67.7 km/h 82% 1.8 mm
14:44 9.2 °C 6.0 °C 972.1 hPa West 44.6 km/h 70.5 km/h 80% 1.8 mm
14:49 9.2 °C 6.0 °C 972.1 hPa WSW 37.0 km/h 70.5 km/h 79% 1.5 mm
14:54 9.3 °C 6.0 °C 972.1 hPa West 43.6 km/h 64.0 km/h 78% 1.3 mm
14:59 9.3 °C 6.0 °C 972.1 hPa WSW 43.6 km/h 68.1 km/h 77% 0.8 mm
15:04 9.3 °C 6.0 °C 972.1 hPa WSW 47.9 km/h 68.1 km/h 78% 0.8 mm
15:09 9.3 °C 6.0 °C 972.1 hPa WSW 59.4 km/h 80.9 km/h 78% 0.5 mm
15:14 9.3 °C 6.0 °C 971.1 hPa WSW 58.2 km/h 80.9 km/h 78% 0.5 mm
15:20 9.3 °C 6.0 °C 971.1 hPa WSW 49.2 km/h 59.4 km/h 78% 0.3 mm
15:25 9.3 °C 6.0 °C 971.1 hPa West 51.2 km/h 58.2 km/h 78% 0.3 mm
15:30 9.3 °C 6.0 °C 972.1 hPa WSW 61.9 km/h 73.0 km/h 78% 0.3 mm
15:35 9.3 °C 6.0 °C 972.1 hPa WSW 43.9 km/h 73.0 km/h 78% 0.0 mm
15:40 9.3 °C 6.0 °C 972.1 hPa WSW 66.9 km/h 66.9 km/h 78% 0.0 mm
15:45 9.2 °C 7.0 °C 972.1 hPa WSW 51.8 km/h 74.8 km/h 82% 0.0 mm
15:50 9.0 °C 7.0 °C 972.1 hPa WSW 50.0 km/h 74.8 km/h 84% 0.0 mm
15:55 8.8 °C 7.0 °C 972.1 hPa WSW 36.4 km/h 71.3 km/h 86% 0.3 mm
16:00 8.6 °C 7.0 °C 973.1 hPa West 32.3 km/h 53.6 km/h 89% 1.0 mm
16:05 8.5 °C 8.0 °C 973.1 hPa WSW 32.8 km/h 53.6 km/h 91% 1.5 mm
16:10 8.3 °C 8.0 °C 973.1 hPa WSW 36.7 km/h 48.9 km/h 93% 1.8 mm
16:15 8.2 °C 7.0 °C 972.1 hPa WSW 55.8 km/h 56.5 km/h 94% 2.5 mm
16:20 8.0 °C 7.0 °C 972.1 hPa West 43.1 km/h 60.8 km/h 94% 3.0 mm
16:25 7.8 °C 7.0 °C 972.1 hPa WSW 47.1 km/h 60.8 km/h 95% 3.3 mm
16:30 7.8 °C 7.0 °C 973.1 hPa West 40.7 km/h 51.8 km/h 96% 3.3 mm
16:35 7.8 °C 7.0 °C 973.1 hPa WSW 38.5 km/h 56.5 km/h 96% 3.3 mm
16:40 7.8 °C 7.0 °C 973.1 hPa WSW 40.4 km/h 63.4 km/h 96% 3.8 mm
16:46 7.7 °C 7.0 °C 973.1 hPa West 37.8 km/h 63.4 km/h 96% 3.8 mm
16:56 7.7 °C 7.0 °C 974.2 hPa West 46.8 km/h 53.3 km/h 96% 3.3 mm
17:03 7.5 °C 7.0 °C 974.2 hPa WSW 32.0 km/h 52.6 km/h 95% 2.5 mm
17:08 7.5 °C 7.0 °C 974.2 hPa WSW 42.2 km/h 54.4 km/h 95% 1.8 mm
17:13 7.5 °C 7.0 °C 974.2 hPa West 47.1 km/h 55.8 km/h 95% 1.3 mm
17:23 7.4 °C 7.0 °C 974.2 hPa WSW 46.5 km/h 51.5 km/h 95% 0.5 mm
17:28 7.4 °C 7.0 °C 974.2 hPa West 42.8 km/h 51.8 km/h 95% 0.3 mm
17:33 7.4 °C 6.0 °C 974.2 hPa West 39.6 km/h 55.3 km/h 94% 0.3 mm
17:38 7.3 °C 6.0 °C 974.2 hPa West 46.0 km/h 61.9 km/h 94% 0.0 mm
17:43 7.4 °C 6.0 °C 975.2 hPa West 38.5 km/h 61.9 km/h 93% 0.0 mm
17:48 7.3 °C 6.0 °C 975.2 hPa West 34.6 km/h 54.7 km/h 93% 0.0 mm
17:53 7.3 °C 6.0 °C 975.2 hPa WSW 29.9 km/h 51.5 km/h 92% 0.0 mm
18:03 6.8 °C 5.0 °C 974.2 hPa West 24.5 km/h 42.5 km/h 86% 0.0 mm
18:08 6.7 °C 4.0 °C 974.2 hPa West 23.3 km/h 38.5 km/h 83% 0.3 mm
18:13 6.5 °C 4.0 °C 975.2 hPa West 27.7 km/h 42.8 km/h 82% 0.3 mm
18:18 6.4 °C 4.0 °C 975.2 hPa West 21.9 km/h 42.8 km/h 83% 0.3 mm
18:23 6.2 °C 4.0 °C 975.2 hPa West 21.2 km/h 36.0 km/h 83% 0.3 mm
18:28 6.1 °C 4.0 °C 976.9 hPa West 9.7 km/h 28.5 km/h 84% 0.3 mm
18:39 5.6 °C 3.0 °C 976.9 hPa WNW 15.4 km/h 32.0 km/h 84% 0.3 mm
18:44 5.2 °C 3.0 °C 977.9 hPa WNW 12.2 km/h 20.6 km/h 83% 0.3 mm
18:49 4.9 °C 2.0 °C 977.9 hPa WNW 9.7 km/h 21.2 km/h 83% 0.3 mm
18:54 4.6 °C 2.0 °C 977.9 hPa WNW 14.8 km/h 21.2 km/h 82% 0.3 mm
18:59 4.3 °C 2.0 °C 976.9 hPa WNW 10.8 km/h 20.6 km/h 83% 0.3 mm
19:04 4.2 °C 2.0 °C 976.9 hPa WNW 15.4 km/h 23.0 km/h 83% 0.3 mm
19:09 4.0 °C 2.0 °C 976.9 hPa West 12.6 km/h 23.0 km/h 84% 0.0 mm
19:14 3.9 °C 2.0 °C 977.9 hPa West 9.0 km/h 18.3 km/h 85% 0.0 mm
19:19 3.8 °C 2.0 °C 977.9 hPa West 9.0 km/h 16.3 km/h 86% 0.0 mm
19:24 3.7 °C 2.0 °C 977.9 hPa West 10.5 km/h 23.3 km/h 87% 0.0 mm
19:25 3.7 °C 2.0 °C 977.9 hPa West 17.2 km/h 23.3 km/h 87% 0.0 mm
19:29 3.6 °C 2.0 °C 977.9 hPa West 15.1 km/h 23.3 km/h 88% 0.0 mm
19:34 3.6 °C 2.0 °C 977.9 hPa West 15.1 km/h 20.6 km/h 88% 0.0 mm
19:39 3.6 °C 2.0 °C 977.9 hPa West 15.8 km/h 23.8 km/h 88% 0.0 mm
19:44 3.6 °C 2.0 °C 978.9 hPa West 18.3 km/h 23.8 km/h 88% 0.0 mm
19:54 3.6 °C 2.0 °C 978.9 hPa West 12.6 km/h 21.6 km/h 88% 0.0 mm
19:59 3.5 °C 2.0 °C 978.9 hPa West 10.1 km/h 17.7 km/h 88% 0.0 mm
20:04 3.5 °C 2.0 °C 978.9 hPa WNW 10.1 km/h 15.8 km/h 88% 0.0 mm
20:09 3.5 °C 2.0 °C 978.9 hPa WNW 12.6 km/h 19.1 km/h 88% 0.0 mm
20:14 3.5 °C 2.0 °C 977.9 hPa West 18.0 km/h 23.0 km/h 87% 0.0 mm
20:19 3.5 °C 2.0 °C 977.9 hPa West 10.8 km/h 23.0 km/h 86% 0.0 mm
20:25 3.5 °C 2.0 °C 977.9 hPa West 9.7 km/h 20.1 km/h 87% 0.0 mm
20:30 3.5 °C 2.0 °C 978.9 hPa West 8.7 km/h 16.9 km/h 87% 0.0 mm
20:32 3.4 °C 2.0 °C 978.9 hPa West 3.5 km/h 16.9 km/h 87% 0.0 mm
20:37 3.4 °C 2.0 °C 978.9 hPa West 13.0 km/h 21.6 km/h 87% 0.0 mm
20:38 3.4 °C 2.0 °C 978.9 hPa West 14.8 km/h 21.6 km/h 87% 0.0 mm
20:43 3.3 °C 2.0 °C 979.9 hPa West 12.2 km/h 26.2 km/h 88% 0.0 mm
20:49 3.3 °C 2.0 °C 979.9 hPa West 14.3 km/h 26.2 km/h 88% 0.0 mm
20:54 3.2 °C 2.0 °C 979.9 hPa West 15.4 km/h 20.9 km/h 87% 0.0 mm
20:59 3.1 °C 1.0 °C 979.9 hPa West 14.0 km/h 20.9 km/h 88% 0.0 mm
21:04 3.0 °C 1.0 °C 979.9 hPa West 12.6 km/h 19.8 km/h 88% 0.0 mm
21:09 2.9 °C 2.0 °C 979.9 hPa WSW 14.3 km/h 19.8 km/h 89% 0.0 mm
21:14 2.9 °C 2.0 °C 980.9 hPa WSW 14.0 km/h 17.2 km/h 89% 0.0 mm
21:19 3.0 °C 2.0 °C 980.9 hPa West 16.3 km/h 20.9 km/h 89% 0.0 mm
21:24 3.0 °C 2.0 °C 980.9 hPa West 11.9 km/h 20.9 km/h 90% 0.0 mm
21:29 3.0 °C 2.0 °C 980.9 hPa WSW 7.2 km/h 16.3 km/h 90% 0.0 mm
21:34 3.0 °C 2.0 °C 980.9 hPa WSW 13.7 km/h 17.2 km/h 91% 0.0 mm
21:39 3.0 °C 2.0 °C 980.9 hPa WSW 14.3 km/h 17.2 km/h 91% 0.0 mm
21:44 3.1 °C 2.0 °C 979.9 hPa WSW 9.7 km/h 17.7 km/h 92% 0.0 mm
21:49 3.1 °C 2.0 °C 979.9 hPa WSW 9.3 km/h 17.7 km/h 92% 0.0 mm
21:54 3.1 °C 2.0 °C 979.9 hPa WSW 9.7 km/h 13.7 km/h 92% 0.0 mm
21:59 3.1 °C 2.0 °C 980.9 hPa WSW 9.3 km/h 14.0 km/h 92% 0.0 mm
22:04 3.1 °C 2.0 °C 980.9 hPa WSW 8.7 km/h 14.0 km/h 92% 0.0 mm
22:09 3.1 °C 2.0 °C 980.9 hPa WSW 7.9 km/h 11.9 km/h 92% 0.0 mm
22:14 3.1 °C 2.0 °C 980.9 hPa WSW 9.0 km/h 10.8 km/h 93% 0.0 mm
22:19 3.1 °C 2.0 °C 980.9 hPa WSW 7.2 km/h 10.8 km/h 93% 0.0 mm
22:25 3.0 °C 2.0 °C 980.9 hPa WSW 6.9 km/h 10.1 km/h 93% 0.0 mm
22:30 3.0 °C 2.0 °C 980.9 hPa WSW 6.4 km/h 10.1 km/h 93% 0.0 mm
22:35 3.0 °C 2.0 °C 980.9 hPa WSW 2.6 km/h 9.3 km/h 93% 0.0 mm
22:40 3.0 °C 2.0 °C 980.9 hPa SW 6.9 km/h 10.1 km/h 93% 0.0 mm
22:45 3.0 °C 2.0 °C 980.9 hPa SW 7.6 km/h 10.1 km/h 93% 0.0 mm
22:50 3.0 °C 2.0 °C 980.9 hPa SSW 6.4 km/h 10.1 km/h 93% 0.0 mm
22:55 3.0 °C 2.0 °C 980.9 hPa SSW 3.2 km/h 7.9 km/h 93% 0.0 mm
23:00 3.0 °C 2.0 °C 980.9 hPa Calm   7.9 km/h 93% 0.0 mm
23:05 2.9 °C 2.0 °C 980.9 hPa Calm   6.4 km/h 93% 0.0 mm
23:10 2.9 °C 2.0 °C 980.9 hPa Calm   6.4 km/h 93% 0.0 mm
23:15 2.7 °C 2.0 °C 980.9 hPa Calm     93% 0.0 mm
23:20 2.5 °C 2.0 °C 980.9 hPa Calm     92% 0.0 mm
23:25 2.4 °C 1.0 °C 980.9 hPa Calm     92% 0.0 mm
23:30 2.3 °C 1.0 °C 980.9 hPa SSW 1.8 km/h 4.0 km/h 92% 0.0 mm
23:35 2.3 °C 2.0 °C 980.9 hPa Calm   4.0 km/h 93% 0.0 mm
23:40 2.2 °C 1.0 °C 980.9 hPa Calm     93% 0.0 mm
23:45 2.1 °C 1.0 °C 980.9 hPa Calm     93% 0.0 mm
23:50 2.0 °C 1.0 °C 980.9 hPa Calm   3.5 km/h 93% 0.0 mm
23:55 1.9 °C 1.0 °C 980.9 hPa Calm   3.5 km/h 93% 0.0 mm
Données Historique de Météo Turbie

Mise a jour : 24/05/2018 10:14:16
Généré par Cumulus 1.9.4 (1099)